Location: Newark
(43.0000°N, 1.6781°W)
Time: 09:41:24
(UTC+00:00)

Altair - All Passes

Search period start: 07 October 2022 00:00
Search period end: 17 October 2022 00:00
Orbit: 1501 x 1682 km, 47.2° (Epoch: 06 October)

Date Brightness Start Highest point End Pass type
(mag) Time Alt. Az. Time Alt. Az. Time Alt. Az.
07 Oct - 02:51:26 10° SSW 03:00:13 44° SE 03:09:20 10° ENE visible
07 Oct - 04:54:45 10° WSW 05:04:29 87° NNW 05:14:37 10° ENE visible
07 Oct - 07:00:08 10° W 07:10:01 70° N 07:20:11 10° E daylight
07 Oct - 09:05:21 10° WNW 09:15:26 84° SSW 09:25:38 10° ESE daylight
07 Oct - 11:10:41 10° WNW 11:19:31 36° SW 11:28:21 10° SSE daylight
08 Oct - 02:26:32 10° SSW 02:35:07 40° SE 02:44:01 10° ENE visible
08 Oct - 04:29:34 10° WSW 04:39:15 90° NNW 04:49:21 10° ENE visible
08 Oct - 06:34:53 10° W 06:44:44 70° N 06:54:52 10° E daylight
08 Oct - 08:40:07 10° WNW 08:50:12 87° SSW 09:00:25 10° ESE daylight
08 Oct - 10:45:22 10° WNW 10:54:24 39° SW 11:03:27 10° SSE daylight
09 Oct - 02:01:39 10° SSW 02:10:01 37° SE 02:18:41 10° ENE visible
09 Oct - 04:04:24 10° WSW 04:14:02 87° SSE 04:24:05 10° ENE visible
09 Oct - 06:09:38 10° W 06:19:26 69° N 06:29:34 10° E daylight
09 Oct - 08:14:54 10° WNW 08:24:57 89° NNE 08:35:11 10° ESE daylight
09 Oct - 10:20:03 10° WNW 10:29:16 42° SW 10:38:31 10° SSE daylight
10 Oct - 01:36:48 10° SSW 01:44:56 34° SE 01:53:21 10° ENE visible
10 Oct - 03:39:14 10° WSW 03:48:49 84° SSE 03:58:50 10° ENE visible
10 Oct - 05:44:23 10° W 05:54:09 70° N 06:04:16 10° E visible
10 Oct - 07:49:41 10° WNW 07:59:42 87° NNE 08:09:56 10° ESE daylight
10 Oct - 09:54:47 10° WNW 10:04:07 45° SW 10:13:32 10° SSE daylight
10 Oct - 12:04:26 10° WSW 12:06:59 11° WSW 12:09:33 10° SW daylight
11 Oct - 01:12:00 10° S 01:19:52 31° SE 01:27:58 10° ENE visible
11 Oct - 03:14:06 10° WSW 03:23:38 80° SSE 03:33:34 10° ENE visible
11 Oct - 05:19:08 10° W 05:28:52 70° N 05:38:57 10° E visible
11 Oct - 07:24:28 10° WNW 07:34:27 84° NNE 07:44:40 10° ESE daylight
11 Oct - 09:29:31 10° WNW 09:38:59 49° SW 09:48:32 10° SSE daylight
11 Oct - 11:37:57 10° W 11:41:58 13° WSW 11:45:58 10° SW daylight
12 Oct - 00:47:14 10° S 00:54:48 28° SE 01:02:35 10° ENE visible
12 Oct - 02:48:58 10° SW 02:58:26 76° SSE 03:08:20 10° ENE visible
12 Oct - 04:53:54 10° W 05:03:36 71° N 05:13:39 10° ENE visible
12 Oct - 06:59:15 10° WNW 07:09:12 81° NNE 07:19:24 10° ESE daylight
12 Oct - 09:04:16 10° WNW 09:13:49 52° SW 09:23:30 10° SSE daylight
12 Oct - 11:11:56 10° W 11:16:55 15° WSW 11:21:55 10° SSW daylight
13 Oct - 00:22:33 10° S 00:29:45 26° SE 00:37:09 10° ENE visible
13 Oct - 02:23:52 10° SW 02:33:16 72° SSE 02:43:05 10° ENE visible
13 Oct - 04:28:40 10° W 04:38:19 72° N 04:48:21 10° ENE visible
13 Oct - 06:34:02 10° WNW 06:43:56 79° NNE 06:54:07 10° ESE daylight
13 Oct - 08:39:01 10° WNW 08:48:40 56° SW 08:58:26 10° SE daylight
13 Oct - 10:46:08 10° W 10:51:52 17° SW 10:57:38 10° SSW daylight
13 Oct - 23:57:53 10° S 00:04:42 23° SE 00:11:41 10° E visible
14 Oct - 01:58:47 10° SW 02:08:06 68° SSE 02:17:49 10° ENE visible
14 Oct - 04:03:26 10° W 04:13:03 73° N 04:23:05 10° ENE visible
14 Oct - 06:08:48 10° WNW 06:18:40 77° NNE 06:28:50 10° ESE daylight
14 Oct - 08:13:47 10° WNW 08:23:29 59° SW 08:33:21 10° SE daylight
14 Oct - 10:20:29 10° W 10:26:48 19° SW 10:33:12 10° SSW daylight
14 Oct - 23:33:19 10° S 23:39:40 21° SE 23:46:10 10° E visible
15 Oct - 01:33:43 10° SW 01:42:56 64° SE 01:52:34 10° ENE visible
15 Oct - 03:38:12 10° W 03:47:48 74° NNW 03:57:48 10° ENE visible
15 Oct - 05:43:36 10° WNW 05:53:24 75° NNE 06:03:32 10° E visible
15 Oct - 07:48:34 10° WNW 07:58:19 63° SW 08:08:15 10° SE daylight
15 Oct - 09:54:54 10° W 10:01:44 21° SW 10:08:39 10° S daylight
15 Oct - 23:08:49 10° SSE 23:14:39 19° SE 23:20:35 10° E night (unlit)
16 Oct - 01:08:40 10° SW 01:17:48 61° SE 01:27:18 10° ENE visible
16 Oct - 03:12:59 10° W 03:22:32 76° NNW 03:32:30 10° ENE visible
16 Oct - 05:18:22 10° WNW 05:28:08 74° NNE 05:38:15 10° E visible
16 Oct - 07:23:21 10° WNW 07:33:07 67° SW 07:43:08 10° SE daylight
16 Oct - 09:29:23 10° W 09:36:40 23° SW 09:44:02 10° S daylight
16 Oct - 22:44:25 10° SSE 22:49:38 16° SE 22:54:55 10° E night (unlit)
